Vertical_Velocity
-6 -14 17 1 -6 -4 2 -2 -3 8 9 -22 -4 -3 5 3 -8 -1 5 -1 0 -2 -2 1 3 -6 1 -2 -2 -2 -1 1 1 0 0 -1 -1 -1 -1 0 1 1 -0 1
-5 -8 13 -3 2 -2 -6 2 12 7 10 -27 0 -7 -2 -8 5 0 -1 3 4 2 2 5 3 -0 1 -1 -3 -0 0 2 2 0 0 1 -0 -1 -1 -1 -2 -2 -2 -2
-15 7 5 0 -2 2 1 -5 13 -9 -2 -7 -2 -31 -17 7 -6 -2 3 6 -0 6 3 6 3 -0 -0 -1 -0 1 -1 -1 1 2 1 0 0 -1 -1 0 -0 -2 -0 1
-26 19 4 -1 -2 4 -6 9 -3 3 -11 -11 -9 -74 0 3 2 1 3 -1 3 3 4 8 5 3 -2 -0 1 -0 -1 -0 -1 0 -1 -0 2 3 1 2 1 -1 -2 -3
15 -2 8 -8 15 -4 4 13 -3 -2 3 -21 25 -43 34 18 0 10 8 6 6 1 3 4 6 1 1 -0 0 3 1 -2 -2 -1 -2 -1 -1 0 1 -1 0 -2 -1 1
5 2 -5 9 3 -0 2 -4 6 -0 8 -53 77 12 -72 -24 23 -2 3 7 3 0 2 5 -4 -1 1 -0 -1 -0 1 1 0 -0 -0 -1 -0 -1 -0 -1 -1 -1 3 2
9 13 -3 -2 9 4 2 -3 -8 -7 2 -43 26 -26 -25 0 6 10 4 5 4 1 1 1 -4 2 2 -1 -3 -2 -1 -1 -0 -2 -1 -1 -2 -2 -2 -2 -1 2 2 1
-14 -6 1 17 7 6 -15 3 -5 11 -1 -4 5 -83 -2 12 1 1 7 2 2 3 -2 1 -1 0 0 -3 -2 -0 1 1 0 -1 -1 -1 -0 -3 -2 -4 -2 -3 -0 2
-12 -12 5 4 2 -3 39 -27 46 11 12 8 -18 -27 -6 -3 7 9 10 9 7 2 1 3 -0 2 2 -0 -5 -3 -1 0 -0 1 -1 -1 -2 -1 -3 -4 -1 -2 -2 -0
7 -40 7 16 -6 18 6 23 2 -3 -6 6 -37 -0 -48 13 11 10 10 11 6 6 8 3 -3 3 3 3 2 1 0 0 1 1 1 -2 -1 1 -1 -2 -4 -2 -2 -3
-3 -8 -0 7 1 12 13 -1 12 13 9 7 -14 -44 28 0 13 6 7 1 5 -0 1 8 5 3 1 1 1 -0 -2 1 3 2 -1 -2 -2 2 1 -1 -3 -5 -3 -2
8 1 -30 7 7 4 15 -8 10 7 -2 -1 1 -89 36 0 7 3 6 5 0 2 0 3 3 5 3 1 3 3 3 1 -1 2 -4 2 -2 -0 -1 -2 -5 -1 -3 -3
5 -11 -12 -25 10 8 3 11 9 -4 -3 -10 18 -74 22 10 1 5 3 -0 2 -1 5 3 3 2 2 1 4 -2 1 2 -1 -1 0 -3 -1 3 0 -5 -0 -1 -4 -3
4 -4 6 -9 -15 6 8 -1 6 0 2 -4 -19 -12 -2 8 3 1 3 -2 -1 -1 1 -0 0 2 3 4 2 6 -1 3 2 1 3 1 0 -0 -0 0 4 -2 1 -1
0 -11 10 9 0 0 1 -5 8 2 6 17 1 -6 -18 5 -4 -4 5 6 -0 -6 1 3 4 5 -2 3 9 3 1 1 9 14 -4 -1 -1 3 5 -2 -0 3 -1 -3
1 -20 5 -10 2 -1 -11 -3 -2 14 -2 6 6 -4 -14 4 -3 -2 3 1 0 -5 7 7 2 2 3 5 3 1 2 8 2 1 1 -4 0 1 -6 -5 -6 -2 -2 -2
-1 -1 7 -32 8 -5 -34 18 7 -5 4 -12 6 4 3 -10 -9 2 1 -3 -1 0 1 0 1 11 5 3 -2 6 3 -4 0 -8 -10 2 -9 -0 -1 -5 -4 -1 -3 -1
-9 4 4 -21 6 -7 12 1 0 -13 -15 -5 -3 -18 6 6 10 -1 -2 1 -1 -2 -2 5 10 10 5 14 -5 7 5 5 -4 6 -0 4 2 3 -2 -1 -3 -3 1 -5
9 5 -3 -3 -5 -14 -4 6 1 -4 0 -7 7 -3 -17 -8 -3 15 13 -2 5 36 20 6 7 19 18 8 6 6 -2 -0 9 -1 5 4 3 5 2 -7 -3 1 -5 -6
1 5 7 2 10 -14 11 8 5 7 -3 3 -9 -7 -4 -8 -10 1 -7 6 15 12 10 15 13 6 8 23 2 2 -6 28 -1 3 9 3 4 -2 -2 -1 -8 3 -5 -4
13 4 -18 1 11 -24 17 -1 3 -1 -3 7 -3 -3 -2 -3 -2 -2 -1 -19 -6 -2 -2 -2 -5 -1 1 4 -0 5 4 2 2 -0 1 2 1 -4 1 2 -1 -4 -2 -3
3 10 11 14 -13 -33 16 -5 -1 -1 -7 -3 -5 -3 -5 1 -2 4 8 -1 -2 5 3 2 -3 7 1 1 7 3 -7 3 2 5 -1 -1 -3 -2 -0 6 -0 -5 1 -2
21 6 15 6 -3 -4 1 2 6 1 -2 1 3 5 3 -3 -1 1 -1 -6 -7 -4 -0 0 -4 2 6 5 -4 4 -1 4 -2 -1 2 -2 -5 -4 1 -0 -1 -1 -1 -3
-6 5 4 1 3 3 -0 5 7 2 3 1 1 -2 2 6 -1 -4 0 1 -3 -3 1 3 5 2 5 6 -4 -2 -1 13 4 -2 1 5 -2 0 -3 1 -1 -1 -3 -2
1 22 7 2 7 -1 3 3 3 3 4 2 6 2 1 -4 4 -5 -1 -1 0 -1 2 -1 3 -0 -1 -1 -0 -2 0 3 2 0 2 -7 0 11 -3 -2 -0 -2 -1 -2
0 3 4 9 6 -7 6 0 0 1 2 -1 -3 -3 -2 -2 -2 -3 -8 -0 3 5 5 -0 3 -1 1 3 1 1 2 1 -4 2 4 1 0 6 -1 0 1 2 -1 -0
Height
5750 5753 5756 5758 5757 5758 5759 5760 5761 5765 5766 5767 5768 5767 5770 5773 5772 5772 5772 5775 5776 5777 5777 5780 5781 5779 5776 5772 5772 5773 5772 5772 5771 5771 5770 5769 5768 5768 5767 5766 5766 5765 5765 5764
5742 5744 5748 5746 5748 5749 5749 5751 5753 5755 5758 5757 5757 5757 5758 5758 5759 5763 5766 5766 5768 5768 5768 5771 5771 5769 5768 5764 5763 5764 5764 5763 5762 5762 5762 5761 5761 5759 5758 5757 5757 5756 5755 5754
5732 5736 5736 5738 5741 5741 5742 5742 5745 5745 5746 5745 5744 5745 5747 5749 5748 5749 5753 5757 5758 5760 5758 5760 5761 5761 5759 5756 5755 5755 5754 5754 5754 5753 5753 5752 5751 5749 5748 5747 5746 5745 5744 5743
5722 5726 5728 5728 5730 5732 5732 5735 5734 5734 5733 5733 5738 5729 5736 5740 5742 5740 5742 5745 5749 5749 5747 5750 5752 5752 5750 5749 5747 5746 5745 5745 5745 5744 5742 5741 5740 5739 5738 5737 5736 5736 5734 5732
5717 5716 5720 5718 5722 5722 5724 5724 5723 5721 5720 5719 5722 5721 5727 5728 5733 5735 5737 5738 5739 5740 5739 5740 5741 5740 5740 5739 5738 5736 5736 5735 5735 5734 5732 5731 5730 5729 5728 5727 5725 5724 5723 5720
5705 5708 5708 5710 5708 5707 5708 5710 5711 5710 5707 5705 5713 5711 5720 5718 5721 5726 5726 5728 5729 5728 5729 5728 5727 5728 5729 5728 5726 5726 5726 5725 5724 5723 5721 5721 5720 5719 5717 5715 5714 5712 5710 5707
5689 5696 5697 5697 5697 5696 5696 5697 5697 5695 5688 5692 5698 5696 5709 5709 5712 5712 5716 5716 5715 5715 5716 5716 5716 5716 5716 5715 5715 5716 5715 5714 5713 5712 5711 5709 5707 5706 5704 5702 5700 5698 5696 5693
5670 5682 5681 5687 5685 5684 5684 5681 5682 5674 5676 5680 5683 5683 5696 5701 5701 5699 5700 5702 5702 5702 5703 5703 5703 5703 5703 5703 5703 5704 5703 5703 5702 5700 5699 5698 5695 5694 5691 5689 5687 5684 5682 5679
5654 5662 5666 5670 5668 5669 5674 5666 5676 5662 5661 5656 5663 5676 5683 5688 5686 5687 5688 5689 5691 5692 5692 5691 5690 5690 5690 5690 5691 5691 5692 5691 5689 5687 5686 5685 5683 5680 5678 5675 5674 5671 5670 5667
5642 5641 5655 5656 5657 5663 5655 5658 5654 5649 5647 5643 5649 5657 5669 5675 5675 5674 5675 5675 5676 5677 5678 5678 5678 5678 5678 5678 5678 5678 5678 5677 5675 5673 5672 5671 5670 5667 5664 5663 5661 5660 5658 5654
5627 5626 5646 5639 5647 5651 5646 5643 5642 5637 5633 5629 5630 5640 5665 5662 5660 5658 5657 5658 5660 5662 5664 5665 5665 5665 5664 5665 5665 5665 5664 5664 5662 5661 5660 5659 5657 5655 5652 5651 5650 5648 5645 5642
5616 5612 5618 5625 5633 5632 5630 5629 5627 5622 5622 5617 5616 5622 5649 5642 5644 5642 5643 5644 5645 5648 5651 5651 5652 5651 5651 5651 5651 5652 5652 5651 5651 5648 5648 5646 5645 5643 5643 5641 5639 5636 5633 5629
5605 5601 5601 5610 5618 5613 5613 5615 5613 5609 5607 5606 5603 5607 5634 5627 5628 5629 5628 5629 5631 5634 5636 5637 5638 5639 5639 5639 5640 5640 5639 5640 5637 5635 5635 5634 5633 5632 5631 5630 5628 5625 5621 5616
5588 5589 5592 5593 5598 5597 5596 5598 5600 5599 5596 5596 5591 5597 5615 5613 5611 5614 5614 5615 5617 5621 5624 5625 5627 5628 5627 5627 5627 5628 5629 5628 5625 5623 5623 5623 5623 5622 5620 5618 5616 5612 5610 5605
5575 5578 5580 5581 5583 5583 5581 5585 5588 5585 5584 5580 5582 5578 5594 5590 5591 5595 5599 5601 5603 5607 5610 5612 5613 5613 5614 5616 5617 5617 5618 5616 5614 5613 5611 5611 5611 5610 5609 5607 5604 5602 5598 5595
5567 5567 5569 5571 5573 5572 5571 5579 5576 5572 5572 5569 5567 5567 5575 5577 5578 5580 5582 5584 5589 5593 5596 5597 5599 5602 5604 5604 5605 5606 5606 5603 5602 5602 5603 5603 5600 5600 5599 5596 5594 5592 5589 5585
5556 5559 5559 5560 5564 5560 5561 5567 5562 5562 5561 5556 5559 5557 5557 5560 5561 5566 5567 5571 5576 5580 5581 5584 5586 5589 5590 5591 5591 5594 5592 5592 5591 5589 5590 5588 5589 5589 5587 5585 5582 5581 5578 5574
5547 5551 5551 5551 5553 5549 5555 5554 5553 5551 5551 5550 5550 5546 5549 5550 5550 5554 5557 5559 5563 5565 5569 5572 5574 5575 5575 5576 5577 5579 5578 5580 5579 5580 5579 5577 5576 5578 5575 5573 5573 5571 5567 5565
5537 5540 5541 5541 5542 5543 5545 5546 5544 5541 5545 5543 5543 5537 5538 5539 5542 5543 5544 5550 5555 5556 5555 5559 5560 5561 5561 5564 5564 5567 5569 5570 5570 5570 5568 5568 5566 5565 5564 5563 5560 5561 5558 5556
5524 5528 5531 5532 5533 5534 5540 5538 5535 5533 5536 5536 5533 5530 5530 5530 5532 5535 5535 5537 5542 5544 5546 5545 5547 5547 5549 5550 5553 5555 5557 5557 5556 5558 5557 5554 5553 5554 5553 5552 5551 5550 5548 5545
5514 5517 5520 5523 5524 5528 5531 5529 5528 5528 5530 5524 5523 5522 5522 5523 5524 5525 5527 5528 5529 5532 5534 5535 5536 5538 5539 5541 5543 5546 5545 5546 5547 5546 5545 5543 5544 5543 5543 5542 5540 5540 5538 5536
5505 5510 5514 5513 5516 5520 5523 5522 5522 5521 5519 5518 5518 5518 5518 5517 5516 5517 5517 5518 5521 5523 5525 5525 5526 5528 5530 5531 5532 5534 5535 5534 5534 5533 5533 5534 5533 5532 5532 5532 5530 5530 5528 5527
5499 5503 5505 5509 5512 5512 5514 5514 5515 5513 5512 5512 5514 5514 5513 5513 5512 5510 5509 5510 5511 5513 5514 5517 5519 5519 5520 5521 5522 5522 5523 5523 5522 5523 5524 5523 5523 5522 5523 5522 5521 5520 5519 5519
5491 5494 5496 5499 5503 5505 5505 5508 5508 5506 5505 5507 5507 5508 5508 5507 5505 5504 5503 5503 5504 5505 5506 5506 5508 5509 5510 5511 5511 5511 5513 5514 5513 5513 5512 5512 5513 5512 5513 5512 5511 5511 5510 5512
5484 5487 5490 5493 5495 5497 5498 5500 5499 5499 5500 5501 5501 5501 5500 5499 5498 5499 5497 5496 5496 5497 5497 5498 5498 5500 5501 5501 5501 5502 5503 5503 5503 5503 5502 5502 5503 5502 5503 5502 5502 5502 5502 5503
5477 5481 5484 5486 5490 5491 5493 5492 5493 5494 5493 5492 5492 5492 5491 5490 5489 5490 5490 5488 5487 5487 5488 5488 5489 5490 5490 5491 5491 5492 5492 5492 5492 5492 5492 5493 5493 5493 5494 5493 5493 5493 5494 5495